Lapse_Rate
6.3 6.2 6.5 6.2 5.9 5.7 6.0 5.5 5.7 5.6 5.3 5.2 5.2 5.0 4.9 4.7 4.7 4.7 4.7 4.7 4.5 4.4 4.4 4.5 4.7 5.0 5.4 5.8 6.0 6.1 6.1 6.0 6.0 6.0 6.0 5.9 6.3 6.4 6.2 5.9 5.8 5.8 5.7
6.6 6.4 6.0 5.9 5.6 5.7 5.6 5.5 5.4 5.4 5.2 4.9 4.8 4.7 4.5 4.6 4.6 4.4 4.3 4.3 4.3 4.5 4.7 5.0 5.2 5.7 6.2 6.5 6.6 6.5 6.5 6.2 6.0 6.0 6.0 6.0 6.0 6.2 5.9 5.7 5.7 5.5 5.5
6.2 5.7 5.2 5.3 5.1 4.9 4.8 5.1 5.1 4.7 4.5 4.3 4.2 4.2 4.2 4.2 4.1 4.1 4.3 4.5 4.7 4.9 4.7 5.0 5.6 6.2 6.5 6.4 6.3 6.3 6.2 5.9 5.9 5.6 5.6 5.7 5.8 5.8 5.6 5.7 5.5 5.3 5.2
5.9 5.4 5.1 5.2 4.9 4.7 4.6 4.6 4.5 4.3 4.3 4.2 4.2 4.2 4.1 4.1 4.2 4.3 4.5 4.6 4.8 4.7 5.0 5.2 5.6 5.9 6.0 5.7 5.7 5.8 5.7 5.6 5.5 5.5 5.7 5.6 5.5 5.5 5.4 5.7 5.5 5.2 5.2
5.7 5.5 5.2 5.0 4.8 4.7 4.5 4.4 4.4 4.3 4.3 4.1 4.0 3.9 3.9 3.9 4.1 4.3 4.5 4.5 4.5 4.6 4.7 4.8 4.9 5.2 5.5 5.4 5.1 5.3 5.4 5.4 5.5 5.5 5.5 5.4 5.6 5.6 5.5 5.4 5.4 5.6 5.5
5.3 5.1 4.9 4.7 4.5 4.4 4.1 4.0 4.0 3.8 3.7 3.5 3.5 3.5 3.5 3.7 4.1 4.3 4.3 4.1 4.4 4.4 4.6 4.8 4.9 5.1 5.1 5.1 4.9 4.8 4.9 4.9 5.1 5.1 5.2 5.4 5.6 5.4 5.3 5.4 5.4 5.4 5.9
5.1 5.0 4.7 4.5 4.4 4.1 4.0 3.8 3.6 3.5 3.5 3.5 3.2 3.1 3.6 4.2 4.4 4.3 4.1 4.1 4.4 4.6 4.6 4.8 4.9 5.0 5.0 4.9 4.9 4.8 4.9 4.9 4.8 4.6 4.8 5.2 5.1 5.1 5.1 5.4 5.4 5.4 5.5
5.2 4.9 4.7 4.5 4.3 4.1 3.9 3.7 3.7 3.6 3.4 3.1 2.8 3.2 4.1 4.3 4.3 4.3 4.2 4.3 4.4 4.5 4.6 4.6 4.7 5.0 4.8 4.6 4.6 4.6 4.6 4.7 4.8 4.8 4.6 4.7 4.8 4.8 4.9 5.0 5.3 5.4 5.4
5.0 4.8 4.6 4.5 4.3 4.0 3.8 3.5 3.2 3.0 2.9 2.9 3.5 4.1 4.1 4.2 4.3 4.4 4.4 4.5 4.6 4.7 4.6 4.6 4.5 4.4 4.5 4.3 4.3 4.4 4.7 4.9 4.6 4.6 4.6 4.6 4.6 4.8 5.0 5.0 5.2 5.4 5.5
4.8 4.6 4.4 4.1 3.8 3.6 3.4 3.1 3.0 2.9 3.0 3.8 4.3 4.3 4.3 4.4 4.5 4.4 4.4 4.5 4.6 4.8 4.7 4.8 4.4 4.2 4.2 4.2 4.2 4.2 4.4 4.5 4.5 4.6 5.0 5.1 5.1 5.2 5.1 5.1 5.3 5.4 5.5
4.4 4.1 4.0 3.9 3.7 3.4 3.1 2.9 2.9 3.0 3.6 4.6 4.5 4.5 4.5 4.5 4.6 4.6 4.5 4.5 4.5 4.7 4.8 4.7 4.4 4.2 4.2 4.2 4.1 4.1 4.2 3.5 3.9 4.5 5.0 5.2 5.1 5.1 5.4 5.4 5.5 5.7 5.9
4.2 4.1 3.9 3.6 3.4 3.3 3.3 3.3 3.4 3.8 4.6 4.8 4.8 4.6 4.5 4.4 4.4 4.5 4.5 4.4 4.3 4.3 4.6 4.5 4.5 4.4 4.3 4.3 4.3 4.4 4.2 3.9 4.4 4.6 5.0 5.3 5.4 5.7 5.8 6.0 6.1 6.2 6.3
4.2 4.0 3.6 3.3 3.3 3.4 3.4 3.4 3.9 4.7 5.1 5.0 4.8 4.8 4.7 4.4 4.2 4.2 4.3 4.2 4.2 4.1 4.1 4.2 4.3 4.4 4.4 4.5 4.4 4.4 4.3 4.3 4.4 4.7 4.9 5.3 5.6 5.8 6.0 6.3 6.4 6.5 6.8
3.9 3.7 3.4 3.3 3.3 3.3 3.3 3.6 4.4 5.1 5.2 5.0 4.9 5.0 4.9 4.7 4.5 4.3 4.2 4.2 4.2 4.2 4.1 4.1 4.2 4.2 4.2 4.3 4.5 4.5 4.4 4.4 4.5 4.8 5.0 5.2 5.5 5.8 6.0 6.4 6.6 6.6 7.0
3.7 3.5 3.3 3.3 3.2 3.2 3.3 4.0 4.9 5.3 5.3 5.1 5.1 5.1 5.2 5.2 4.9 4.6 4.5 4.5 4.5 4.4 4.5 4.7 4.5 4.4 4.5 4.3 4.3 4.4 4.5 4.5 4.6 4.6 4.9 5.2 5.5 5.7 6.0 6.5 6.7 6.8 7.0
3.5 3.3 3.2 3.2 3.1 3.2 4.0 4.8 5.2 5.4 5.3 5.1 5.0 4.9 5.1 5.0 4.8 4.7 4.7 4.5 4.5 4.4 4.5 4.5 4.5 4.4 4.5 4.6 4.8 5.0 5.0 4.9 4.9 4.8 4.9 5.1 5.4 5.7 5.9 6.4 6.7 6.8 6.9
3.5 3.2 3.3 3.3 3.3 3.8 4.5 5.3 5.7 5.3 5.0 5.1 5.2 5.2 5.0 4.7 4.6 4.5 4.6 4.6 4.3 4.4 4.5 4.5 4.6 4.7 4.9 5.0 5.2 5.4 5.5 5.4 5.3 5.1 5.0 5.1 5.4 5.7 6.0 6.4 6.6 7.0 7.0
3.3 3.3 3.4 3.3 3.4 3.9 4.8 5.3 5.6 5.8 5.9 5.7 5.3 5.3 5.2 4.9 4.6 4.5 4.6 4.6 4.5 4.3 4.7 4.9 5.1 5.1 5.2 5.4 5.5 5.7 5.9 6.0 5.9 5.6 5.4 5.3 5.5 5.8 6.2 6.4 6.7 6.9 7.0
3.3 3.4 3.3 3.3 3.4 4.1 5.1 5.4 5.5 5.6 5.6 5.5 5.4 5.1 4.9 4.6 4.4 4.4 4.5 4.7 4.9 5.0 5.1 5.1 5.1 5.2 5.3 5.4 5.6 5.9 6.3 6.4 6.3 6.1 5.8 5.5 5.6 5.7 6.4 6.5 6.7 6.9 7.0
3.3 3.4 3.3 3.2 3.4 4.2 5.1 5.4 5.4 5.6 5.5 5.4 5.3 5.3 5.1 4.8 4.6 4.6 4.7 4.9 5.0 5.2 5.2 5.2 5.2 5.1 5.3 5.6 5.9 6.1 6.5 6.6 6.5 6.3 6.0 5.7 5.7 5.9 6.4 6.6 6.9 7.0 7.0
3.3 3.3 3.2 3.1 3.4 4.1 5.1 5.3 5.5 5.6 5.4 5.3 5.1 5.0 5.0 5.0 5.1 5.1 5.1 5.1 5.2 5.2 5.4 5.5 5.7 5.8 6.0 6.2 6.1 6.2 6.3 6.5 6.3 6.3 6.1 5.8 5.8 6.2 6.4 6.7 6.9 7.0 7.0
3.3 3.3 3.1 3.0 3.2 3.9 4.8 5.3 5.4 5.4 5.3 5.2 5.1 5.0 5.1 5.2 5.3 5.3 5.3 5.3 5.5 5.7 5.8 6.0 6.1 6.2 6.0 6.2 6.1 6.1 6.1 6.2 6.5 6.2 6.0 5.9 6.0 6.5 6.7 6.9 7.0 7.0 7.0
3.4 3.3 3.2 3.0 3.2 3.8 4.5 4.9 5.1 5.3 5.2 5.2 5.2 5.3 5.4 5.5 5.6 5.5 5.4 5.6 6.0 6.4 6.7 6.9 6.8 6.5 6.2 6.3 6.2 6.0 6.1 6.2 6.2 6.1 6.0 6.1 6.1 6.9 7.0 7.0 7.1 7.1 7.0
3.4 3.3 3.2 3.0 3.1 3.8 4.4 4.8 5.0 5.1 5.1 5.1 5.3 5.4 5.6 5.7 5.6 5.5 5.7 6.2 6.6 7.0 7.3 7.2 7.0 6.6 6.5 6.5 6.3 6.2 6.2 6.2 6.1 6.2 6.2 6.2 6.6 7.0 7.0 7.0 7.0 7.0 6.9
3.4 3.3 3.3 3.1 3.0 3.5 4.3 4.7 5.0 5.0 5.0 5.2 5.4 5.6 5.7 5.7 5.7 5.7 6.1 6.6 7.0 7.3 7.5 7.5 7.3 7.2 6.9 6.6 6.5 6.4 6.3 6.3 6.4 6.4 6.4 6.4 6.9 6.9 6.8 6.7 6.8 6.8 6.7
3.3 3.3 3.3 3.1 3.0 3.5 4.1 4.7 4.9 5.2 5.2 5.3 5.5 5.8 5.8 5.7 5.7 6.0 6.3 6.7 7.0 7.3 7.2 7.3 7.3 7.2 7.1 7.0 6.9 6.9 6.8 6.7 6.6 6.6 6.6 6.7 6.9 6.7 6.6 6.5 6.6 6.6 6.7
Wind_Speed
8 8 8 8 8 8 7 7 6 6 7 7 7 6 6 6 6 6 5 5 5 3 2 1 1 2 2 2 1 1 2 3 4 3 4 4 3 6 11 18 19 19 21
10 11 11 10 10 9 8 8 7 7 6 6 6 6 6 5 5 5 6 5 4 3 3 4 5 2 3 3 2 4 3 4 4 9 3 3 6 5 7 6 11 11 16
11 12 10 9 9 9 8 7 7 6 6 5 5 5 4 4 5 4 4 4 4 5 5 5 5 4 3 3 3 4 4 4 4 4 4 3 4 3 3 4 4 9 14
10 10 10 8 8 7 7 6 6 6 6 5 4 3 2 2 3 3 4 4 4 5 6 6 6 6 6 6 5 6 5 4 4 4 4 4 4 4 3 4 6 3 6
9 9 7 7 6 7 7 7 6 6 5 5 4 3 3 2 3 4 4 5 5 6 6 6 6 8 12 11 6 5 6 5 4 4 6 7 7 6 6 4 5 8 7
8 7 6 7 7 7 6 6 6 5 5 4 4 3 2 2 5 6 5 4 5 6 6 6 6 9 10 12 16 21 18 10 8 8 7 6 8 8 7 7 6 8 7
7 6 6 6 6 6 5 5 5 4 3 3 2 2 3 4 8 11 13 3 3 3 4 4 5 5 10 6 14 18 18 20 19 10 8 8 8 8 7 8 7 8 10
6 6 6 6 6 4 4 4 3 1 0 1 3 2 2 4 10 12 13 1 2 5 6 6 6 7 7 8 7 8 10 9 9 7 9 11 10 9 9 10 10 9 8
6 5 5 5 4 3 3 2 0 1 2 2 2 3 2 4 8 10 10 4 5 6 5 6 6 7 14 19 12 10 11 10 17 21 22 22 23 23 16 5 5 4 5
4 4 3 3 3 2 1 1 1 1 2 2 2 2 2 3 8 13 13 4 6 4 5 6 14 12 20 19 12 9 10 8 6 8 7 8 12 10 14 7 4 5 5
4 4 4 4 4 3 2 2 2 2 2 3 3 3 5 5 7 16 16 6 5 5 6 4 5 18 19 21 21 11 11 10 12 8 8 4 4 6 6 6 5 4 6
5 6 5 5 4 3 4 3 3 3 3 4 4 5 4 6 13 12 16 17 15 7 7 4 7 19 21 22 16 16 19 17 2 3 4 5 6 4 5 4 8 8 10
6 6 5 5 5 5 3 3 2 3 2 4 3 4 5 4 4 14 17 17 16 10 6 12 22 21 21 9 15 18 18 3 4 4 5 5 4 5 4 3 7 10 10
6 5 4 5 5 5 3 2 3 3 4 4 4 5 5 5 4 4 6 7 13 10 14 11 14 17 12 13 10 8 4 5 6 6 6 4 4 3 3 3 3 4 3
4 3 4 3 4 4 4 2 2 3 4 5 4 5 6 7 5 15 13 7 7 10 14 6 2 4 6 5 4 5 5 6 6 5 6 5 4 4 5 3 4 5 6
3 3 2 3 3 3 3 4 7 10 14 15 17 13 8 16 19 18 18 19 19 19 7 5 6 5 5 5 6 7 7 9 6 5 6 6 5 4 5 4 4 6 6
3 1 2 3 3 3 3 3 4 6 12 15 15 16 18 18 18 18 19 20 16 15 3 5 5 6 8 8 7 6 6 6 7 7 6 6 5 4 7 6 5 5 6
3 5 1 2 3 3 3 3 3 5 7 7 11 14 16 18 19 20 19 16 7 7 4 6 7 7 7 8 8 7 7 6 6 7 7 6 5 5 6 5 6 6 6
2 1 1 2 2 4 3 4 4 5 5 6 7 10 13 18 19 17 18 4 6 7 7 7 7 8 8 8 8 8 8 7 7 7 7 5 7 4 5 5 6 12 11
2 4 3 1 2 3 3 4 5 5 6 6 6 6 8 9 6 8 7 7 7 7 8 8 8 9 9 9 9 8 8 8 7 7 6 6 5 5 6 7 6 6 6
1 2 3 3 3 3 3 4 5 5 6 6 8 9 19 9 8 8 8 8 8 8 9 9 9 9 9 9 9 8 9 8 7 7 6 6 5 6 6 6 6 6 6
2 1 2 2 2 3 4 4 4 5 6 7 8 9 20 8 8 8 9 9 8 9 8 9 9 9 9 9 8 8 8 8 7 6 6 5 5 5 6 6 6 6 6
2 2 2 2 2 5 4 4 5 5 6 7 8 9 9 8 9 9 9 9 9 9 7 8 8 9 8 7 7 7 7 6 5 5 5 5 4 5 5 6 6 6 7
3 3 1 2 3 3 4 5 5 9 9 9 10 9 9 9 10 10 9 9 8 9 9 7 8 10 9 7 8 7 6 7 7 4 6 5 5 7 6 6 7 8 8
3 2 0 2 3 3 4 5 7 9 9 8 9 9 9 10 10 10 9 9 9 8 9 8 9 11 9 8 8 9 9 8 8 8 5 6 6 9 8 7 8 9 12
2 1 1 2 3 4 4 7 7 8 7 8 8 9 9 10 10 9 9 9 8 9 10 7 11 14 14 10 10 11 9 7 6 8 8 6 7 7 8 9 13 10 12
Wind_Direction
98 101 97 96 94 91 101 107 106 110 108 104 107 109 117 120 120 114 113 124 121 132 123 132 227 198 261 283 244 218 214 183 238 276 239 261 268 266 278 284 282 277 278
90 91 86 84 87 91 89 92 93 95 86 110 109 119 126 129 131 139 153 155 162 186 201 194 233 210 223 228 233 254 234 232 212 275 244 253 238 247 248 269 279 276 269
91 92 86 84 82 82 81 80 80 93 96 99 113 121 130 152 159 166 170 188 206 217 223 218 233 204 253 256 257 264 254 264 233 224 262 247 261 263 275 255 260 269 274
80 80 82 76 83 83 85 84 86 83 84 76 77 97 119 149 175 201 214 230 240 240 235 217 224 217 223 244 249 252 256 249 248 234 242 245 242 275 244 270 281 244 270
87 86 85 87 88 83 74 70 70 66 64 60 60 41 19 319 264 248 239 233 237 248 247 243 240 239 239 257 280 260 246 247 248 247 266 276 269 264 256 263 260 291 281
87 89 93 86 81 78 85 84 75 69 63 64 57 64 38 321 309 300 286 228 241 237 249 254 241 264 274 278 283 287 287 274 267 264 262 254 271 267 262 250 253 282 288
96 93 91 92 86 83 87 85 80 68 56 49 28 1 321 306 309 302 301 297 256 248 253 262 273 255 280 264 281 286 288 286 281 272 255 254 273 270 254 251 246 247 265
89 93 93 97 101 97 92 89 89 81 58 303 305 330 323 305 316 308 303 134 256 260 254 252 252 271 263 272 257 260 258 255 258 264 266 267 253 249 229 239 244 250 260
87 92 99 111 117 116 111 117 132 349 327 318 311 316 320 315 336 326 324 303 281 272 268 257 261 265 281 289 278 270 272 269 265 278 280 275 276 276 286 239 235 261 274
101 97 97 105 118 120 116 352 344 346 298 328 331 332 275 315 316 319 313 281 273 268 266 258 276 280 287 292 291 284 281 278 270 269 268 278 282 278 276 277 269 263 263
65 60 52 48 72 57 46 12 353 354 9 4 331 317 310 301 297 311 310 294 267 276 284 266 257 279 287 289 287 278 280 269 256 270 264 234 256 257 259 254 241 228 259
68 67 60 52 39 34 29 0 9 18 355 337 323 309 293 287 304 306 306 307 300 289 291 269 271 282 285 287 303 318 310 304 352 280 268 259 256 260 262 263 263 254 244
72 64 55 48 33 17 10 5 359 349 344 314 301 292 289 281 276 298 307 308 305 304 292 285 297 304 306 322 301 296 304 324 282 261 256 253 241 253 259 266 270 264 260
79 59 40 31 28 8 358 7 355 330 316 299 296 295 288 283 282 276 279 285 290 294 292 285 284 287 299 302 304 298 279 273 267 262 256 250 257 265 253 233 251 263 250
81 51 44 42 12 349 343 282 326 291 283 297 285 283 306 307 290 301 313 304 301 295 301 303 305 295 279 273 272 273 273 277 272 276 271 261 250 252 259 243 245 253 247
69 44 30 18 355 344 333 323 324 328 328 320 318 315 317 310 309 317 316 313 308 312 317 313 299 282 273 281 278 291 286 282 280 268 268 259 253 251 261 261 246 254 253
95 80 358 5 333 331 336 333 318 319 326 328 326 325 320 316 318 318 314 314 323 327 305 296 287 291 294 290 269 263 272 275 277 269 269 261 250 243 274 273 255 259 242
58 30 43 322 323 340 350 336 321 321 322 323 323 326 324 324 322 320 327 336 324 318 287 277 277 276 274 277 279 267 266 265 264 261 264 261 240 243 253 251 261 256 252
54 358 5 331 350 26 354 338 322 313 308 306 311 319 324 319 317 326 328 307 290 294 289 284 280 278 276 270 270 267 258 259 254 252 255 249 251 222 257 262 252 261 253
22 4 61 32 32 2 345 335 324 317 313 311 312 314 311 314 329 321 316 306 297 292 294 290 288 284 279 275 273 270 265 261 255 249 252 254 235 242 242 255 244 247 251
85 7 60 62 16 354 333 331 321 319 316 323 326 323 333 338 316 310 305 302 298 294 293 289 287 282 278 274 269 262 258 257 249 247 246 248 230 239 245 250 253 246 249
114 96 85 20 6 344 330 317 314 312 307 311 326 324 330 328 314 311 308 304 300 295 292 290 288 286 284 280 275 270 262 254 247 248 242 243 229 237 247 251 254 244 249
129 135 63 8 351 345 331 307 333 307 316 323 323 322 322 320 317 313 310 308 307 306 303 301 299 297 296 291 283 270 267 261 250 243 242 237 230 236 250 251 254 251 251
146 147 80 355 336 352 326 311 313 334 336 334 336 328 324 322 318 317 317 317 317 316 315 310 308 307 312 321 315 303 280 266 259 247 245 246 250 259 251 256 255 257 259
157 162 67 344 334 319 317 330 343 343 339 332 332 331 328 327 324 324 324 324 328 322 320 318 317 322 327 326 329 337 335 312 282 269 259 260 254 260 261 259 259 258 255
164 170 319 324 333 328 315 346 341 342 329 328 329 329 330 325 324 325 327 329 329 321 324 323 320 324 324 326 318 322 323 307 275 262 250 249 257 257 253 256 259 259 259